[[{"header":{"parameterUnit":"m.s-1","parameterCategory":1,"la1":30.2991,"la2":30.254,"lo1":-89.0895,"lo2":-89.0444,"dy":0.0017,"dx":0.0017,"nx":28,"ny":28,"refTime":"2023-09-01T21:00:00:Z","depth":0,"parameterNumber":2,"parameterNumberName":"U-component_of_WINDS"},"data":[0,0,0,0,0,0,0,0,0,0,0,0,0,0,0,0,0,0,0,0,0,0,0,0,0,0,0,0,0,0,0,0,0,0,0,0,0,0,0,0,0,0,0,0,0,0,0,0,0,0,0,0,0,0,0,0,0,0,-0.6003,-0.6002,0,-0.5862,-0.5861,-0.5859,-0.5775,-0.5774,-0.5774,-0.5774,-0.5626,-0.5623,-0.5619,0,0,0,0,0,0,0,0,0,0,0,0,0,-0.6197,-0.6194,-0.6003,-0.6001,-0.6,-0.5862,-0.586,-0.5859,-0.5775,-0.5774,-0.5774,-0.5774,-0.5628,-0.5623,-0.5619,0,0,0,0,0,0,0,0,0,0,0,0,0,-0.609,-0.6193,-0.6004,-0.5941,-0.5935,-0.5863,-0.586,-0.5858,-0.5775,-0.5774,-0.5774,-0.5773,-0.5629,-0.5624,-0.5618,-0.5597,0,0,-0.5602,-0.56,0,0,0,0,0,0,0,0,-0.6096,-0.6083,-0.5952,-0.5946,-0.5938,-0.5836,-0.5875,-0.577,-0.5775,-0.5835,-0.5774,-0.5773,-0.5696,-0.5685,-0.566,-0.559,-0.5583,-0.5602,-0.5598,-0.5596,-0.5595,0,0,0,0,0,0,0,-0.6104,-0.6089,-0.5947,-0.5951,-0.5942,-0.592,-0.5904,-0.5854,-0.5771,-0.583,-0.5824,-0.5808,-0.5692,-0.5665,-0.5656,-0.5581,-0.5602,-0.5597,-0.5594,-0.5592,-0.5485,-0.5485,0,0,0,0,0,0,-0.6121,-0.6095,-0.5952,-0.5943,-0.6017,-0.5917,-0.5899,-0.5869,-0.5771,-0.5756,-0.5809,-0.5805,-0.5675,-0.5662,-0.565,-0.5617,-0.5596,-0.5591,-0.5588,-0.5484,-0.5485,-0.5485,0,0,0,0,0,0,-0.6126,-0.6109,-0.5957,-0.6017,-0.5996,-0.5914,-0.5881,-0.5866,-0.584,-0.5755,-0.5739,-0.5797,-0.5674,-0.5658,-0.5611,-0.5611,-0.5589,-0.5584,-0.5484,-0.5484,-0.5485,-0.5552,0,0,0,0,0,0,-0.6132,-0.6112,-0.6103,-0.6018,-0.5994,-0.5921,-0.5881,-0.5864,-0.5831,-0.5824,-0.574,-0.5725,-0.5672,-0.5619,-0.5605,-0.5603,-0.558,-0.5483,-0.5484,-0.5485,-0.555,-0.5555,-0.556,0,0,0,0,0,-0.6139,-0.6127,-0.6103,-0.6086,-0.5981,-0.5921,-0.5907,-0.5847,-0.5831,-0.5822,-0.5767,-0.5728,-0.5614,-0.5615,-0.5599,-0.5595,-0.5483,-0.5484,-0.5485,-0.5547,-0.5554,-0.556,0,0,0,0,0,0,-0.6214,-0.6115,-0.6087,-0.6048,-0.5994,-0.5907,-0.5893,-0.5857,-0.5805,-0.5801,-0.5728,-0.5709,-0.5669,-0.5627,-0.563,-0.5568,-0.5544,-0.5542,-0.5597,-0.5603,-0.5608,-0.5618,-0.5575,0,0,0,0,0,-0.6226,-0.6187,-0.6102,-0.6075,-0.605,-0.5977,-0.5948,-0.5907,-0.5847,-0.5824,-0.5766,-0.5709,-0.566,-0.5629,-0.5579,-0.5544,-0.5523,-0.5533,-0.5538,-0.5543,-0.5541,-0.5518,-0.5521,-0.5488,-0.5488,-0.5488,0,0,-0.625,-0.6191,-0.6171,-0.6089,-0.6042,-0.6002,-0.5958,-0.5917,-0.5886,-0.5817,-0.5769,-0.5725,-0.5656,-0.5614,-0.5593,-0.5578,-0.5546,-0.5544,-0.5548,-0.5544,-0.552,-0.5523,-0.5526,-0.5488,-0.5488,-0.5488,0,0,-0.6274,-0.6226,-0.6198,-0.6152,-0.6082,-0.6034,-0.6027,-0.5946,-0.5914,-0.5865,-0.5812,-0.5774,-0.5691,-0.5644,-0.561,-0.5616,-0.5577,-0.5602,-0.5628,-0.5606,-0.5609,-0.5611,-0.5612,-0.5613,-0.5601,-0.5601,-0.5601,0,-0.6312,-0.625,-0.6188,-0.615,-0.6115,-0.6052,-0.6023,-0.5981,-0.5898,-0.5875,-0.586,-0.5755,-0.5705,-0.565,-0.5652,-0.5626,-0.5616,-0.561,-0.5614,-0.5615,-0.5616,-0.5616,-0.5617,-0.5604,-0.5604,-0.5603,-0.5603,0,-0.6301,-0.6259,-0.6244,-0.6167,-0.613,-0.6097,-0.6029,-0.5999,-0.5961,-0.5914,-0.5864,-0.5801,-0.5737,-0.5721,-0.5683,-0.5662,-0.5655,-0.5628,-0.5601,-0.5624,-0.5622,-0.5622,-0.5609,-0.5608,-0.5607,-0.5606,0,0,-0.6367,-0.6256,-0.6251,-0.6215,-0.6134,-0.6099,-0.6063,-0.6001,-0.5977,-0.5922,-0.5888,-0.582,-0.5795,-0.5756,-0.5712,-0.5693,-0.57,-0.5668,-0.5665,-0.5676,-0.5671,-0.5692,-0.5693,-0.5675,-0.5675,-0.5675,-0.5677,0,-0.6378,-0.631,-0.6253,-0.6205,-0.6165,-0.6105,-0.6072,-0.6018,-0.5973,-0.5931,-0.5881,-0.5834,-0.5804,-0.578,-0.5759,-0.5704,-0.5699,-0.5703,-0.5642,-0.5641,-0.566,-0.5692,-0.5713,-0.5719,-0.5676,-0.5676,-0.5676,0,-0.6381,-0.6329,-0.6279,-0.6201,-0.6181,-0.6154,-0.6093,-0.6054,-0.5991,-0.5959,-0.5916,-0.587,-0.5828,-0.5806,-0.5746,-0.5751,-0.5722,-0.5691,-0.569,-0.5681,-0.5659,-0.5684,-0.5719,-0.572,-0.5675,-0.5675,-0.5675,0,-0.6434,-0.6351,-0.631,-0.6281,-0.6189,-0.6171,-0.6132,-0.6068,-0.6035,-0.5981,-0.5958,-0.59,-0.5868,-0.5824,-0.5763,-0.5753,-0.5708,-0.5682,-0.568,-0.5682,-0.5672,-0.5674,-0.5703,-0.5656,-0.5656,-0.5656,-0.5656,0,-0.6451,-0.6422,-0.6332,-0.6307,-0.6272,-0.6206,-0.6173,-0.6129,-0.6073,-0.6037,-0.5981,-0.5948,-0.587,-0.5828,-0.578,-0.5737,-0.5723,-0.5695,-0.5683,-0.57,-0.5703,-0.5679,-0.5677,-0.5656,-0.5656,-0.5656,-0.5656,0,-0.6503,-0.6442,-0.6393,-0.631,-0.6289,-0.6267,-0.6195,-0.6168,-0.612,-0.6075,-0.606,-0.5985,-0.5932,-0.5867,-0.5793,-0.5761,-0.5722,-0.5704,-0.5744,-0.5736,-0.5737,-0.5738,-0.5751,-0.5749,-0.5705,-0.5706,-0.5706,0,-0.6518,-0.6495,-0.641,-0.6382,-0.6344,-0.6301,-0.6266,-0.62,-0.6167,-0.6093,-0.6074,-0.6017,-0.5968,-0.5886,-0.5824,-0.5767,-0.5746,-0.5755,-0.5737,-0.5755,-0.5745,-0.5747,-0.5743,-0.5759,-0.576,-0.5761,-0.5761,0,-0.6551,-0.6522,-0.6475,-0.6418,-0.6379,-0.633,-0.6279,-0.6259,-0.6182,-0.6147,-0.6093,-0.6055,-0.598,-0.5924,-0.5859,-0.5817,-0.5776,-0.5768,-0.5764,-0.578,-0.5804,-0.579,-0.5755,-0.5767,-0.5767,-0.5766,-0.5766,-0.5766,-0.6584,-0.656,-0.6496,-0.6446,-0.6401,-0.6354,-0.6324,-0.6273,-0.6227,-0.6161,-0.6124,-0.6071,-0.6007,-0.5916,-0.5876,-0.5832,-0.5817,-0.5812,-0.5811,-0.581,-0.5815,-0.5812,-0.582,-0.582,-0.582,-0.5819,-0.5819,0,-0.6612,-0.6569,-0.6523,-0.6454,-0.6414,-0.638,-0.6322,-0.6291,-0.6245,-0.619,-0.6143,-0.608,-0.6025,-0.5959,-0.5899,-0.5877,-0.5856,-0.5863,-0.5864,-0.5854,-0.5832,-0.5841,-0.5881,-0.5881,-0.5881,-0.5881,-0.5881,-0.5881,-0.6623,-0.658,-0.6544,-0.6478,-0.6433,-0.6381,-0.6351,-0.6307,-0.6263,-0.6196,-0.615,-0.6108,-0.6047,-0.5983,-0.5931,-0.5912,-0.5893,-0.5905,-0.5881,-0.5861,-0.5856,-0.5851,-0.5859,-0.5902,-0.5902,-0.5907,-0.5907,-0.5907]},{"header":{"parameterUnit":"m.s-1","parameterCategory":1,"la1":30.2991,"la2":30.254,"lo1":-89.0895,"lo2":-89.0444,"dy":0.0017,"dx":0.0017,"nx":28,"ny":28,"refTime":"2023-09-01T21:00:00:Z","depth":0,"parameterNumber":3,"parameterNumberName":"V-component_of_WINDS"},"data":[0,0,0,0,0,0,0,0,0,0,0,0,0,0,0,0,0,0,0,0,0,0,0,0,0,0,0,0,0,0,0,0,0,0,0,0,0,0,0,0,0,0,0,0,0,0,0,0,0,0,0,0,0,0,0,0,0,0,0.9055,0.9055,0,0.906,0.906,0.906,0.9045,0.9044,0.9044,0.9043,0.9049,0.905,0.905,0,0,0,0,0,0,0,0,0,0,0,0,0,0.9031,0.9032,0.9055,0.9055,0.9055,0.906,0.906,0.906,0.9045,0.9044,0.9043,0.9043,0.9049,0.905,0.905,0,0,0,0,0,0,0,0,0,0,0,0,0,0.904,0.9032,0.9055,0.9048,0.9047,0.906,0.906,0.906,0.9045,0.9044,0.9043,0.9043,0.9049,0.905,0.905,0.9071,0,0,0.9053,0.9054,0,0,0,0,0,0,0,0,0.9039,0.904,0.9049,0.9048,0.9048,0.9051,0.9054,0.9064,0.9045,0.9046,0.9043,0.9042,0.905,0.9051,0.9054,0.9071,0.9071,0.9053,0.9054,0.9054,0.9055,0,0,0,0,0,0,0,0.9039,0.904,0.9057,0.9049,0.9048,0.9044,0.9045,0.9056,0.9052,0.9046,0.9044,0.9045,0.905,0.9053,0.9054,0.9071,0.9053,0.9054,0.9055,0.9055,0.9105,0.9106,0,0,0,0,0,0,0.9039,0.904,0.9057,0.9057,0.9041,0.9045,0.9046,0.9051,0.9052,0.9051,0.9046,0.9044,0.9052,0.9053,0.9054,0.9077,0.9054,0.9055,0.9056,0.9104,0.9105,0.9106,0,0,0,0,0,0,0.9038,0.9041,0.9056,0.9048,0.905,0.9047,0.9052,0.9051,0.9054,0.9052,0.9051,0.9049,0.9051,0.9053,0.9066,0.9077,0.9056,0.9056,0.9103,0.9105,0.9106,0.9124,0,0,0,0,0,0,0.9038,0.904,0.9048,0.9048,0.905,0.9069,0.9053,0.9052,0.9055,0.9054,0.9055,0.9055,0.9051,0.9065,0.9067,0.9078,0.9057,0.9102,0.9104,0.9105,0.9122,0.9125,0.9128,0,0,0,0,0,0.9037,0.9053,0.9048,0.9051,0.906,0.9069,0.9071,0.9065,0.9056,0.9064,0.9063,0.9055,0.9076,0.9067,0.9069,0.908,0.9102,0.9103,0.9105,0.9121,0.9125,0.9128,0,0,0,0,0,0,0.9054,0.9053,0.9048,0.9064,0.9067,0.9067,0.9076,0.907,0.9075,0.9073,0.9067,0.9067,0.9082,0.9083,0.9073,0.9099,0.9087,0.909,0.9098,0.9102,0.9105,0.9104,0.9058,0,0,0,0,0,0.906,0.9068,0.9066,0.9081,0.9083,0.9079,0.9083,0.9079,0.9082,0.9083,0.9083,0.9086,0.9093,0.9098,0.9104,0.9123,0.9122,0.9131,0.9134,0.9137,0.9138,0.9148,0.9151,0.9112,0.9112,0.9112,0,0,0.9071,0.9072,0.9077,0.9084,0.9086,0.9094,0.908,0.909,0.9096,0.9084,0.9097,0.9097,0.91,0.9116,0.9123,0.9117,0.915,0.9139,0.9141,0.9141,0.915,0.9154,0.9157,0.9113,0.9113,0.9113,0,0,0.9097,0.9098,0.911,0.9112,0.9115,0.9112,0.9115,0.9116,0.9116,0.9128,0.912,0.9127,0.914,0.9142,0.9145,0.9172,0.9164,0.9174,0.9189,0.9199,0.9202,0.9204,0.9213,0.9217,0.9176,0.9176,0.9176,0,0.9111,0.9123,0.9117,0.9127,0.9131,0.9121,0.9133,0.9135,0.914,0.9142,0.9135,0.9151,0.9152,0.9168,0.9175,0.9178,0.9181,0.9173,0.9202,0.9204,0.9207,0.9215,0.9219,0.9177,0.9177,0.9177,0.9177,0,0.914,0.9148,0.9158,0.9162,0.9167,0.9178,0.9174,0.918,0.9175,0.9174,0.9187,0.9188,0.9195,0.9199,0.9194,0.9214,0.921,0.9203,0.919,0.9212,0.9219,0.9223,0.9179,0.9179,0.9178,0.9178,0,0,0.9175,0.9176,0.918,0.9182,0.9184,0.9191,0.9201,0.9208,0.9212,0.9216,0.9225,0.9236,0.9229,0.9232,0.9228,0.9237,0.9257,0.9228,0.9228,0.9232,0.9278,0.9283,0.9287,0.9253,0.9253,0.9254,0.9278,0,0.9199,0.9217,0.9212,0.923,0.9238,0.9229,0.9238,0.9241,0.924,0.9246,0.9246,0.9253,0.9244,0.9246,0.9254,0.9253,0.9266,0.9251,0.926,0.926,0.9258,0.9291,0.9296,0.9319,0.9281,0.9281,0.9281,0,0.9229,0.9234,0.9253,0.9254,0.9257,0.9265,0.927,0.9277,0.928,0.9278,0.9282,0.9277,0.9288,0.9276,0.929,0.9281,0.9284,0.9285,0.9285,0.9285,0.9272,0.9291,0.9326,0.9329,0.9286,0.9286,0.9286,0,0.9252,0.9263,0.9275,0.9278,0.9279,0.9285,0.9286,0.9288,0.9292,0.9297,0.93,0.9306,0.9309,0.9314,0.9311,0.9303,0.9326,0.9314,0.9325,0.9325,0.9329,0.9329,0.9364,0.9333,0.9333,0.9333,0.9333,0,0.9279,0.929,0.9286,0.9293,0.9306,0.9301,0.9314,0.9314,0.9316,0.9323,0.9316,0.9324,0.9319,0.9326,0.9324,0.9336,0.9337,0.9337,0.9336,0.9337,0.9337,0.9338,0.9336,0.9334,0.9334,0.9334,0.9334,0,0.9306,0.9303,0.9316,0.9317,0.9317,0.9326,0.9327,0.9334,0.9333,0.9342,0.9344,0.9342,0.935,0.9348,0.9356,0.9354,0.937,0.9367,0.9368,0.9367,0.9378,0.9377,0.9415,0.942,0.9387,0.9387,0.9387,0,0.9322,0.9331,0.9333,0.9337,0.9338,0.9346,0.935,0.9346,0.935,0.9354,0.9361,0.9368,0.9373,0.9386,0.9386,0.9392,0.9389,0.9402,0.939,0.9391,0.9388,0.9388,0.9388,0.9404,0.9405,0.9405,0.9405,0,0.9352,0.9351,0.9356,0.9362,0.9367,0.9371,0.9375,0.9379,0.9375,0.938,0.9388,0.9392,0.9401,0.9408,0.9414,0.9415,0.941,0.9409,0.9412,0.9413,0.9413,0.9412,0.9374,0.9408,0.9408,0.9408,0.9407,0.9407,0.9374,0.9381,0.9383,0.939,0.9392,0.9396,0.9402,0.9402,0.9408,0.9415,0.9412,0.9421,0.9424,0.9431,0.9433,0.944,0.9435,0.944,0.944,0.9441,0.9442,0.9412,0.9442,0.9442,0.9441,0.9441,0.9441,0,0.9403,0.9404,0.941,0.9415,0.9421,0.9415,0.9419,0.9424,0.9432,0.9435,0.944,0.9449,0.9456,0.9456,0.9463,0.9468,0.9466,0.947,0.9469,0.947,0.9447,0.9443,0.9472,0.9472,0.9472,0.9472,0.9472,0.9472,0.9418,0.943,0.9428,0.9441,0.9442,0.945,0.9453,0.9456,0.9459,0.9469,0.9474,0.9475,0.9477,0.9483,0.949,0.9489,0.9492,0.9497,0.9496,0.9474,0.9471,0.9468,0.9465,0.9498,0.9498,0.9518,0.9518,0.9518]}]]